Terminal Aerodrome Forecast
Issued by NWS Greer, SC

Home | Current Version | Previous Version | Text Only | Print | Product List | Glossary On
Versions: 1 2 3 4 5 6 7 8 9 10 11 12 13 14 15 16 17 18 19 20 21 22 23 24 25 26 27 28 29 30 31 32 33 34 35 36 37 38 39 40 41 42 43 44 45 46 47 48 49
000
FTUS42 KGSP 251130
TAFCLT
TAF
KCLT 251130Z 2512/2612 00000KT P6SM SKC
     FM251600 19007KT P6SM SKC
     FM260300 18006KT P6SM BKN110
     FM261100 20003KT P6SM SCT022 OVC050=

USA.gov is the U.S. government's official web portal to all federal, state and local government web resources and services.